SUMZM KOPF-07FA

Flight info

Callsign SUMZM
Flight time 0h 20m
Altitude 9000
Route VKZ/N0253F080
Aircraft PC12/L-SDFGRWY/S

Departure

Time 2026-05-04 15:10
Airport Miami-Opa Locka Executive Airport (KOPF)

Arrival

Time 2026-05-04 15:30
Airport Ocean Reef Club Airport (07FA)
Time Latitude Longitude Altitude Speed Heading
2026-05-04 14:53 25.91111 -80.27072 12 ft 0 kts 360°
2026-05-04 15:05 25.91127 -80.27084 12 ft 6 kts 315°
2026-05-04 15:06 25.91151 -80.27117 12 ft 7 kts 291°
2026-05-04 15:06 25.91154 -80.27195 12 ft 12 kts 267°
2026-05-04 15:06 25.91149 -80.27292 12 ft 13 kts 266°
2026-05-04 15:07 25.91138 -80.27503 12 ft 14 kts 267°
2026-05-04 15:07 25.91133 -80.27614 12 ft 15 kts 266°
2026-05-04 15:07 25.91128 -80.27727 12 ft 14 kts 266°
2026-05-04 15:07 25.91122 -80.27825 12 ft 11 kts 265°
2026-05-04 15:08 25.91130 -80.27902 12 ft 11 kts 318°
2026-05-04 15:08 25.91201 -80.27901 11 ft 10 kts
2026-05-04 15:08 25.91266 -80.27902 10 ft 10 kts
2026-05-04 15:08 25.91315 -80.27842 10 ft 8 kts 87°
2026-05-04 15:09 25.91317 -80.27806 10 ft 24 kts 82°
2026-05-04 15:09 25.91340 -80.27412 14 ft 77 kts 91°
2026-05-04 15:09 25.91356 -80.26693 170 ft 99 kts 90°
2026-05-04 15:10 25.91246 -80.25010 814 ft 114 kts 91°
2026-05-04 15:10 25.91159 -80.24033 1102 ft 139 kts 94°
2026-05-04 15:10 25.90554 -80.21720 1907 ft 180 kts 127°
2026-05-04 15:11 25.89430 -80.20992 2295 ft 198 kts 168°
2026-05-04 15:11 25.88064 -80.20767 2663 ft 203 kts 167°
2026-05-04 15:11 25.86691 -80.20296 3039 ft 205 kts 158°
2026-05-04 15:11 25.85360 -80.19704 3410 ft 208 kts 157°
2026-05-04 15:12 25.84019 -80.19124 3762 ft 211 kts 159°
2026-05-04 15:12 25.82619 -80.18544 4140 ft 212 kts 160°
2026-05-04 15:12 25.81237 -80.17971 4506 ft 212 kts 160°
2026-05-04 15:12 25.79854 -80.17394 4882 ft 212 kts 161°
2026-05-04 15:13 25.78457 -80.16810 5252 ft 213 kts 161°
2026-05-04 15:13 25.77063 -80.16227 5622 ft 216 kts 162°
2026-05-04 15:13 25.75647 -80.15720 5982 ft 212 kts 173°
2026-05-04 15:13 25.74222 -80.15726 6338 ft 208 kts 193°
2026-05-04 15:14 25.72833 -80.16109 6698 ft 205 kts 198°
2026-05-04 15:14 25.71432 -80.16509 7054 ft 206 kts 198°
2026-05-04 15:14 25.70033 -80.16907 7342 ft 210 kts 198°
2026-05-04 15:14 25.68618 -80.17311 7584 ft 215 kts 198°
2026-05-04 15:15 25.67167 -80.17723 7827 ft 217 kts 199°
2026-05-04 15:15 25.65687 -80.18144 7992 ft 223 kts 199°
2026-05-04 15:15 25.64156 -80.18581 7989 ft 232 kts 199°
2026-05-04 15:16 25.60955 -80.19490 7989 ft 241 kts 198°
2026-05-04 15:16 25.59321 -80.19953 7989 ft 243 kts 198°
2026-05-04 15:16 25.55994 -80.20600 7978 ft 248 kts 175°
2026-05-04 15:17 25.54423 -80.19824 7982 ft 258 kts 144°
2026-05-04 15:17 25.52607 -80.17173 7977 ft 259 kts 129°
2026-05-04 15:17 25.51134 -80.15073 7983 ft 261 kts 130°
2026-05-04 15:18 25.50004 -80.13487 7983 ft 262 kts 130°
2026-05-04 15:18 25.48769 -80.12061 7978 ft 255 kts 149°
2026-05-04 15:18 25.47707 -80.11529 7983 ft 251 kts 169°
2026-05-04 15:19 25.44544 -80.12423 7983 ft 237 kts 219°
2026-05-04 15:19 25.43191 -80.13479 7988 ft 238 kts 216°
2026-05-04 15:19 25.40150 -80.15058 7985 ft 244 kts 206°
2026-05-04 15:20 25.38586 -80.15776 7982 ft 243 kts 207°
2026-05-04 15:20 25.37032 -80.16535 7977 ft 243 kts 208°
2026-05-04 15:20 25.35482 -80.17298 7980 ft 243 kts 207°
2026-05-04 15:20 25.33937 -80.18049 7980 ft 243 kts 207°
2026-05-04 15:21 25.32387 -80.18798 7980 ft 243 kts 207°
2026-05-04 15:21 25.30833 -80.19551 7980 ft 243 kts 207°
2026-05-04 15:21 25.27701 -80.21072 7719 ft 249 kts 207°
2026-05-04 15:22 25.26117 -80.21841 7406 ft 247 kts 207°
2026-05-04 15:22 25.24566 -80.22592 7101 ft 240 kts 206°
2026-05-04 15:22 25.21594 -80.24030 6483 ft 227 kts 207°
2026-05-04 15:23 25.20172 -80.24718 6165 ft 221 kts 207°
2026-05-04 15:23 25.18753 -80.25406 5843 ft 225 kts 206°
2026-05-04 15:23 25.17354 -80.26187 5522 ft 224 kts 218°
2026-05-04 15:23 25.16272 -80.27384 5198 ft 223 kts 236°
2026-05-04 15:24 25.15412 -80.30591 4557 ft 222 kts 272°
2026-05-04 15:24 25.16541 -80.33743 3912 ft 225 kts 307°
2026-05-04 15:25 25.17548 -80.35051 3595 ft 223 kts 315°
2026-05-04 15:25 25.18761 -80.35952 3266 ft 202 kts 333°
2026-05-04 15:25 25.20096 -80.36382 2938 ft 202 kts 350°
2026-05-04 15:26 25.22861 -80.35824 2288 ft 208 kts 25°
2026-05-04 15:26 25.24036 -80.34893 2013 ft 204 kts 36°
2026-05-04 15:26 25.26151 -80.33037 1588 ft 180 kts 37°
2026-05-04 15:27 25.27063 -80.32240 1583 ft 154 kts 35°
2026-05-04 15:27 25.28599 -80.30905 1450 ft 126 kts 34°
2026-05-04 15:28 25.29831 -80.29825 1143 ft 98 kts 37°
2026-05-04 15:28 25.30310 -80.29377 731 ft 90 kts 37°
2026-05-04 15:28 25.31290 -80.28564 196 ft 86 kts 37°
2026-05-04 15:29 25.31754 -80.28158 96 ft 83 kts 34°
2026-05-04 15:30 25.32620 -80.27411 11 ft 21 kts 38°
2026-05-04 15:30 25.32908 -80.27170 12 ft 5 kts 286°
2026-05-04 15:31 25.32724 -80.27321 13 ft 17 kts 217°
2026-05-04 15:31 25.32628 -80.27404 12 ft 17 kts 219°
2026-05-04 15:32 25.32482 -80.27507 10 ft 0 kts 258°
2026-05-04 15:32 25.32481 -80.27498 11 ft 0 kts 299°
2026-05-04 15:33 25.32481 -80.27500 11 ft 1 kts 313°
2026-05-04 15:34 25.32480 -80.27499 11 ft 0 kts 314°